NSZ41G ENGM-ESSA

Flight info

Callsign NSZ41G
Flight time 0h 38m
Altitude 31000
Route MASEV6D MASEV Z183 LEGPO DCT ELTOK ELTOK8P
Aircraft B738/M-SDE2E3GHIJ1LRWXY/LB1

Departure

Time 2026-05-04 07:12
Airport Oslo-Gardermoen International Airport (ENGM)

Arrival

Time 2026-05-04 07:50
Airport Stockholm-Arlanda Airport (ESSA)
Time Latitude Longitude Altitude Speed Heading
2026-05-04 06:48 60.19343 11.10267 684 ft 0 kts 16°
2026-05-04 07:01 60.19316 11.10255 680 ft 4 kts 345°
2026-05-04 07:01 60.19297 11.10273 682 ft 4 kts 332°
2026-05-04 07:02 60.19273 11.10298 679 ft 4 kts 332°
2026-05-04 07:02 60.19249 11.10325 684 ft 4 kts 322°
2026-05-04 07:02 60.19233 11.10361 679 ft 2 kts 287°
2026-05-04 07:02 60.19232 11.10365 684 ft 0 kts 286°
2026-05-04 07:06 60.19235 11.10361 684 ft 1 kts 317°
2026-05-04 07:06 60.19243 11.10374 678 ft 3 kts 50°
2026-05-04 07:07 60.19252 11.10468 684 ft 11 kts 89°
2026-05-04 07:08 60.19540 11.11350 681 ft 21 kts 16°
2026-05-04 07:09 60.19674 11.11428 682 ft 20 kts 16°
2026-05-04 07:09 60.19805 11.11505 681 ft 19 kts 16°
2026-05-04 07:09 60.19931 11.11579 684 ft 19 kts 16°
2026-05-04 07:09 60.20050 11.11645 679 ft 15 kts 19°
2026-05-04 07:10 60.20080 11.11813 681 ft 15 kts 106°
2026-05-04 07:10 60.20052 11.12006 683 ft 14 kts 108°
2026-05-04 07:12 60.17603 11.10806 1281 ft 164 kts 195°
2026-05-04 07:12 60.16505 11.10253 2089 ft 171 kts 194°
2026-05-04 07:12 60.15240 11.09612 2426 ft 203 kts 198°
2026-05-04 07:12 60.13764 11.09119 2667 ft 231 kts 172°
2026-05-04 07:13 60.12263 11.10540 3123 ft 254 kts 139°
2026-05-04 07:13 60.11031 11.13153 3868 ft 262 kts 134°
2026-05-04 07:13 60.09766 11.15848 4668 ft 268 kts 135°
2026-05-04 07:14 60.08577 11.29372 7892 ft 290 kts 45°
2026-05-04 07:14 60.10041 11.32210 8708 ft 295 kts 42°
2026-05-04 07:15 60.11256 11.35550 9500 ft 304 kts 70°
2026-05-04 07:15 60.11631 11.39745 10263 ft 313 kts 84°
2026-05-04 07:15 60.11856 11.44278 10490 ft 341 kts 85°
2026-05-04 07:15 60.12089 11.49136 11013 ft 356 kts 85°
2026-05-04 07:16 60.12341 11.54117 11745 ft 363 kts 85°
2026-05-04 07:16 60.12611 11.59195 12528 ft 369 kts 85°
2026-05-04 07:16 60.12894 11.64344 13337 ft 374 kts 85°
2026-05-04 07:16 60.13188 11.69577 14135 ft 380 kts 85°
2026-05-04 07:17 60.13491 11.74899 14904 ft 387 kts 85°
2026-05-04 07:17 60.13799 11.80305 15716 ft 392 kts 85°
2026-05-04 07:17 60.14111 11.85781 16503 ft 398 kts 85°
2026-05-04 07:17 60.14426 11.91341 17226 ft 404 kts 86°
2026-05-04 07:18 60.14743 11.96989 17943 ft 410 kts 86°
2026-05-04 07:18 60.15061 12.02714 18653 ft 415 kts 86°
2026-05-04 07:18 60.15381 12.08509 19392 ft 420 kts 86°
2026-05-04 07:18 60.15701 12.14363 20094 ft 424 kts 86°
2026-05-04 07:19 60.16024 12.20289 20760 ft 429 kts 86°
2026-05-04 07:19 60.16346 12.26266 21415 ft 434 kts 86°
2026-05-04 07:19 60.16670 12.32318 22042 ft 438 kts 86°
2026-05-04 07:19 60.16995 12.38433 22640 ft 442 kts 86°
2026-05-04 07:20 60.17319 12.44601 23235 ft 446 kts 86°
2026-05-04 07:20 60.17634 12.50833 23801 ft 451 kts 88°
2026-05-04 07:20 60.17660 12.57121 24339 ft 450 kts 99°
2026-05-04 07:20 60.17297 12.63370 24918 ft 451 kts 102°
2026-05-04 07:22 60.14286 13.07927 28359 ft 471 kts 103°
2026-05-04 07:22 60.13855 13.14458 28771 ft 474 kts 103°
2026-05-04 07:23 60.13420 13.21019 29215 ft 475 kts 103°
2026-05-04 07:23 60.12979 13.27602 29611 ft 477 kts 103°
2026-05-04 07:23 60.12532 13.34204 29992 ft 479 kts 103°
2026-05-04 07:23 60.12081 13.40826 30367 ft 481 kts 103°
2026-05-04 07:24 60.11624 13.47482 30750 ft 482 kts 103°
2026-05-04 07:24 60.11163 13.54136 31196 ft 481 kts 103°
2026-05-04 07:24 60.10701 13.60771 31658 ft 480 kts 104°
2026-05-04 07:24 60.10236 13.67389 32060 ft 480 kts 104°
2026-05-04 07:25 60.09765 13.74025 32438 ft 481 kts 104°
2026-05-04 07:26 60.06536 14.18344 32733 ft 480 kts 104°
2026-05-04 07:27 60.05542 14.31577 32730 ft 481 kts 104°
2026-05-04 07:27 60.04536 14.44818 32675 ft 482 kts 104°
2026-05-04 07:28 60.04020 14.51490 32055 ft 485 kts 105°
2026-05-04 07:28 60.03504 14.58131 31371 ft 483 kts 105°
2026-05-04 07:28 60.02985 14.64762 30633 ft 483 kts 105°
2026-05-04 07:28 60.02466 14.71363 30089 ft 478 kts 105°
2026-05-04 07:29 60.01952 14.77885 29536 ft 473 kts 105°
2026-05-04 07:29 60.01441 14.84345 28981 ft 467 kts 105°
2026-05-04 07:29 60.00932 14.90722 28408 ft 462 kts 105°
2026-05-04 07:29 60.00423 14.97036 27849 ft 457 kts 105°
2026-05-04 07:30 59.99916 15.03284 27289 ft 453 kts 105°
2026-05-04 07:30 59.99412 15.09463 26742 ft 449 kts 105°
2026-05-04 07:30 59.98907 15.15591 26194 ft 445 kts 105°
2026-05-04 07:30 59.98405 15.21659 25618 ft 441 kts 105°
2026-05-04 07:31 59.97898 15.27727 24864 ft 443 kts 105°
2026-05-04 07:31 59.97394 15.33753 24287 ft 439 kts 105°
2026-05-04 07:33 59.93910 15.74525 20581 ft 412 kts 105°
2026-05-04 07:33 59.93421 15.80127 20059 ft 408 kts 105°
2026-05-04 07:33 59.92933 15.85676 19561 ft 404 kts 105°
2026-05-04 07:33 59.92448 15.91178 19056 ft 401 kts 104°
2026-05-04 07:34 59.91965 15.96618 18550 ft 397 kts 104°
2026-05-04 07:34 59.91484 16.02014 18069 ft 393 kts 104°
2026-05-04 07:34 59.91005 16.07354 17573 ft 390 kts 104°
2026-05-04 07:34 59.90529 16.12655 17084 ft 387 kts 104°
2026-05-04 07:35 59.90054 16.17915 16593 ft 384 kts 104°
2026-05-04 07:35 59.89580 16.23131 16114 ft 381 kts 104°
2026-05-04 07:35 59.89109 16.28294 15633 ft 378 kts 104°
2026-05-04 07:35 59.88639 16.33419 15152 ft 375 kts 103°
2026-05-04 07:36 59.88170 16.38505 14676 ft 372 kts 103°
2026-05-04 07:36 59.87703 16.43554 14201 ft 369 kts 104°
2026-05-04 07:38 59.84487 16.77775 10905 ft 351 kts 103°
2026-05-04 07:38 59.84032 16.82530 10446 ft 348 kts 103°
2026-05-04 07:38 59.83582 16.87217 10125 ft 341 kts 103°
2026-05-04 07:38 59.83139 16.91821 9981 ft 328 kts 103°
2026-05-04 07:39 59.82715 16.96144 9831 ft 318 kts 104°
2026-05-04 07:39 59.82211 17.00378 9517 ft 313 kts 107°
2026-05-04 07:39 59.81667 17.04555 9168 ft 311 kts 107°
2026-05-04 07:39 59.81121 17.08695 8825 ft 308 kts 107°
2026-05-04 07:40 59.80582 17.12798 8494 ft 306 kts 107°
2026-05-04 07:40 59.80056 17.16844 8345 ft 297 kts 107°
2026-05-04 07:40 59.79545 17.20795 8062 ft 294 kts 107°
2026-05-04 07:40 59.79040 17.24698 7750 ft 291 kts 107°
2026-05-04 07:41 59.78538 17.28584 7437 ft 289 kts 107°
2026-05-04 07:41 59.78042 17.32434 7117 ft 287 kts 107°
2026-05-04 07:41 59.77547 17.36268 6801 ft 286 kts 107°
2026-05-04 07:41 59.77054 17.40076 6458 ft 285 kts 108°
2026-05-04 07:42 59.76560 17.43887 6083 ft 285 kts 108°
2026-05-04 07:42 59.76066 17.47686 5756 ft 284 kts 108°
2026-05-04 07:42 59.75841 17.51565 5406 ft 287 kts 87°
2026-05-04 07:42 59.76171 17.55455 5137 ft 285 kts 81°
2026-05-04 07:43 59.76553 17.59295 4884 ft 280 kts 81°
2026-05-04 07:43 59.76913 17.63032 4739 ft 272 kts 82°
2026-05-04 07:43 59.77248 17.66696 4500 ft 268 kts 82°
2026-05-04 07:43 59.77563 17.70265 4241 ft 257 kts 82°
2026-05-04 07:44 59.77858 17.73695 3991 ft 247 kts 83°
2026-05-04 07:44 59.78136 17.76998 3743 ft 238 kts 83°
2026-05-04 07:44 59.78400 17.80185 3495 ft 231 kts 83°
2026-05-04 07:44 59.78654 17.83279 3246 ft 224 kts 83°
2026-05-04 07:45 59.78902 17.86298 2990 ft 219 kts 83°
2026-05-04 07:45 59.79140 17.89202 2741 ft 214 kts 83°
2026-05-04 07:45 59.79372 17.92100 2564 ft 203 kts 83°
2026-05-04 07:45 59.79582 17.94712 2517 ft 187 kts 83°
2026-05-04 07:46 59.79779 17.97210 2501 ft 180 kts 86°
2026-05-04 07:46 59.79568 17.99571 2500 ft 176 kts 129°
2026-05-04 07:46 59.78548 18.00748 2524 ft 175 kts 179°
2026-05-04 07:46 59.77349 18.00368 2514 ft 176 kts 191°
2026-05-04 07:47 59.76129 17.99949 2373 ft 179 kts 190°
2026-05-04 07:47 59.74912 17.99518 2155 ft 177 kts 190°
2026-05-04 07:47 59.73712 17.99086 1904 ft 173 kts 190°
2026-05-04 07:49 59.66713 17.96548 554 ft 134 kts 189°
2026-05-04 07:49 59.65781 17.96206 351 ft 138 kts 190°
2026-05-04 07:49 59.64841 17.95875 147 ft 136 kts 190°
2026-05-04 07:50 59.63955 17.95550 112 ft 114 kts 189°
2026-05-04 07:50 59.63359 17.95338 118 ft 70 kts 189°
2026-05-04 07:50 59.63055 17.95194 134 ft 26 kts 203°
2026-05-04 07:50 59.62929 17.95033 135 ft 20 kts 219°
2026-05-04 07:51 59.62846 17.94849 136 ft 15 kts 258°
2026-05-04 07:51 59.62899 17.94772 136 ft 11 kts 358°
2026-05-04 07:51 59.63003 17.94800 133 ft 21 kts 10°
2026-05-04 07:51 59.63166 17.94857 125 ft 26 kts
2026-05-04 07:52 59.63346 17.94924 120 ft 26 kts 11°
2026-05-04 07:52 59.63515 17.94986 116 ft 24 kts 10°
2026-05-04 07:52 59.63672 17.95045 111 ft 23 kts 11°
2026-05-04 07:52 59.63825 17.95098 109 ft 22 kts 10°
2026-05-04 07:53 59.63973 17.95152 108 ft 21 kts
2026-05-04 07:54 59.65113 17.95483 115 ft 21 kts 343°
2026-05-04 07:55 59.65253 17.95406 121 ft 21 kts 346°
2026-05-04 07:55 59.65389 17.95334 124 ft 20 kts 345°
2026-05-04 07:55 59.65523 17.95259 125 ft 20 kts 345°
2026-05-04 07:55 59.65652 17.95192 126 ft 19 kts 345°
2026-05-04 07:56 59.65742 17.95097 124 ft 15 kts 301°
2026-05-04 07:56 59.65734 17.94894 124 ft 16 kts 255°
2026-05-04 07:56 59.65702 17.94646 121 ft 21 kts 256°
2026-05-04 07:56 59.65666 17.94367 125 ft 21 kts 256°
2026-05-04 07:57 59.65632 17.94093 121 ft 21 kts 256°
2026-05-04 07:57 59.65595 17.93794 112 ft 24 kts 255°
2026-05-04 07:57 59.65555 17.93487 111 ft 23 kts 257°
2026-05-04 07:57 59.65517 17.93190 111 ft 22 kts 255°
2026-05-04 07:58 59.65476 17.92904 109 ft 21 kts 252°
2026-05-04 07:58 59.65424 17.92702 110 ft 13 kts 219°
2026-05-04 07:58 59.65341 17.92726 111 ft 13 kts 154°
2026-05-04 07:58 59.65261 17.92810 110 ft 13 kts 151°
2026-05-04 07:59 59.65206 17.92822 111 ft 8 kts 188°
2026-05-04 07:59 59.65153 17.92802 111 ft 8 kts 191°
2026-05-04 07:59 59.65139 17.92797 111 ft 0 kts 190°